Location: Amsterdam
(30.7274°N, 84.4357°W)
Time: 00:04:21
(UTC+00:00)

Tiros 1 despin weight - All Passes

Search period start: 17 February 2026 00:00
Search period end: 27 February 2026 00:00
Orbit: 557 x 594 km, 48.2° (Epoch: 15 February)

Date Brightness Start Highest point End Pass type
(mag) Time Alt. Az. Time Alt. Az. Time Alt. Az.
17 Feb - 02:53:54 10° NNW 02:57:48 35° NE 03:01:44 10° ESE night (unlit)
17 Feb - 04:34:37 10° WNW 04:38:16 28° SW 04:41:57 10° SSE night (unlit)
17 Feb - 18:30:07 10° S 18:33:04 18° SE 18:36:00 10° E daylight
17 Feb - 20:09:14 10° WSW 20:13:21 51° NW 20:17:26 10° NE daylight
17 Feb - 21:52:58 10° NW 21:54:40 12° NNW 21:56:22 10° N daylight
18 Feb - 01:17:08 10° N 01:19:08 13° NNE 01:21:06 10° NE visible
18 Feb - 02:56:13 10° NW 03:00:23 57° NE 03:04:34 10° ESE night (unlit)
18 Feb - 04:37:56 10° W 04:40:37 16° SW 04:43:19 10° S night (unlit)
18 Feb - 18:31:39 10° SSW 18:35:25 32° SE 18:39:10 10° ENE daylight
18 Feb - 20:12:08 10° W 20:15:56 32° NNW 20:19:44 10° NNE daylight
19 Feb - 01:19:03 10° NNW 01:21:54 17° NNE 01:24:46 10° ENE visible
19 Feb - 02:58:39 10° NW 03:02:53 84° SW 03:07:07 10° SE night (unlit)
19 Feb - 18:33:39 10° SW 18:37:47 57° SE 18:41:56 10° ENE daylight
19 Feb - 20:15:17 10° W 20:18:35 22° NNW 20:21:53 10° NNE daylight
20 Feb - 01:21:08 10° NNW 01:24:37 24° NNE 01:28:06 10° E visible
20 Feb - 03:01:15 10° WNW 03:05:18 47° SW 03:09:23 10° SSE night (unlit)
20 Feb - 16:59:03 10° SE 17:00:09 11° SE 17:01:16 10° ESE daylight
20 Feb - 18:36:00 10° SW 18:40:15 83° NW 18:44:28 10° NE daylight
20 Feb - 20:18:41 10° WNW 20:21:18 16° NNW 20:23:54 10° NNE daylight
20 Feb - 23:45:20 10° NNE 23:45:43 10° NNE 23:46:06 10° NNE daylight
21 Feb - 01:23:19 10° NNW 01:27:14 37° NE 01:31:09 10° ESE visible
21 Feb - 03:04:07 10° WNW 03:07:40 27° SW 03:11:15 10° S visible
21 Feb - 16:59:21 10° S 17:02:26 20° SE 17:05:30 10° E daylight
21 Feb - 18:38:38 10° WSW 18:42:45 49° NW 18:46:50 10° NE daylight
21 Feb - 20:22:29 10° NW 20:24:05 12° NNW 20:25:42 10° N daylight
21 Feb - 23:46:29 10° N 23:48:32 13° NNE 23:50:35 10° NE daylight
22 Feb - 01:25:37 10° NW 01:29:46 60° NE 01:33:56 10° ESE visible
22 Feb - 03:07:28 10° W 03:09:58 15° SW 03:12:29 10° SSW visible
22 Feb - 17:00:54 10° SSW 17:04:46 34° SE 17:08:35 10° ENE daylight
22 Feb - 18:41:31 10° W 18:45:18 31° NNW 18:49:05 10° NNE daylight
22 Feb - 23:48:23 10° NNW 23:51:16 18° NNE 23:54:11 10° ENE visible
23 Feb - 01:28:01 10° NW 01:32:13 80° SW 01:36:26 10° SE visible
23 Feb - 17:02:55 10° SW 17:07:07 60° SE 17:11:18 10° ENE daylight
23 Feb - 18:44:38 10° W 18:47:56 21° NNW 18:51:12 10° NNE daylight
23 Feb - 23:50:26 10° NNW 23:53:56 25° NNE 23:57:28 10° E visible
24 Feb - 01:30:37 10° WNW 01:34:37 44° SW 01:38:38 10° SSE visible
24 Feb - 15:27:54 10° SSE 15:29:25 12° SE 15:30:56 10° ESE daylight
24 Feb - 17:05:16 10° SW 17:09:33 79° NW 17:13:47 10° NE daylight
24 Feb - 18:48:02 10° WNW 18:50:37 15° NNW 18:53:11 10° NNE daylight
24 Feb - 22:14:22 10° N 22:15:02 10° NNE 22:15:42 10° NNE daylight
24 Feb - 23:52:36 10° NW 23:56:32 38° NE 00:00:27 10° ESE visible
25 Feb - 01:33:27 10° WNW 01:36:56 25° SW 01:40:25 10° S visible
25 Feb - 15:28:28 10° S 15:31:40 21° SE 15:34:52 10° E daylight
25 Feb - 17:07:53 10° WSW 17:12:00 47° NW 17:16:06 10° NE daylight
25 Feb - 18:51:49 10° NW 18:53:22 12° NNW 18:54:55 10° N daylight
25 Feb - 22:15:41 10° N 22:17:49 13° NNE 22:19:56 10° NE daylight
25 Feb - 23:54:52 10° NW 23:59:01 63° NE 00:03:11 10° ESE visible
26 Feb - 01:36:52 10° W 01:39:12 15° SW 01:41:33 10° SSW visible
26 Feb - 15:30:03 10° SSW 15:33:58 35° SE 15:37:52 10° ENE daylight
26 Feb - 17:10:45 10° W 17:14:32 30° NNW 17:18:18 10° NNE daylight
26 Feb - 22:17:34 10° NNW 22:20:32 18° NNE 22:23:29 10° ENE daylight
